Notices

What's New in latest Release from April 7th, 2021:

- Updated Glossary, including Speed of Maximum Gust, and Total Hourly Precipitation

- Updated national and regional climate services offices contacts and prices information

- Addition of station inventory lists for 1981-2010, 1971-2000, and 1961-1990 Normals.

If you haven't already, please take our survey and provide feedback about our website: https://eccc.sondage-survey.ca/f/LanguageSelection.aspx?s=442ca660-fcf1-47c0-95a9-59707d6fd709

Hourly Data Report for October 14, 2019

QUALICUM BEACH AIRPORT
BRITISH COLUMBIA
Current Station Operator: ECCC - MSC

49°20'14.000" N
124°23'38.000" W
58.20 m
1026562
71766
VOQ

Download Data

Hourly Data (October 2019)
Hourly Data Report for October 14, 2019
TIME
LST
Temp Definition
°C
Dew Point Definition
°C
Rel Hum Definition
%
Precip. Amount Definition
mm

Wind Dir Definition
10's deg

Wind Spd Definition
km/h
Visibility Definition
km
Stn Press Definition
kPa
Hmdx Definition


Wind Chill Definition


Weather Definition


00:00 6.2 5.0 92 0.0 24 2   101.01     LegendNANA
01:00 6.2 5.1 93 0.0 24 1   101.05     LegendNANA
02:00 4.8 3.9 94 0.0   0   101.09     LegendNANA
03:00 4.1 3.4 95 0.0 27 1   101.10     LegendNANA
04:00 4.9 4.2 96 0.0 27 1   101.14     LegendNANA
05:00 5.1 4.4 95 0.0 27 1   101.15     LegendNANA
06:00 5.1 4.3 95 0.0 27 1   101.20     LegendNANA
07:00 4.7 4.0 95 0.0 27 2   101.22     LegendNANA
08:00 5.8 4.8 94 0.0 25 1   101.24     LegendNANA
09:00 10.1 5.9 75 0.0 29 2   101.24     LegendNANA
10:00 10.8 7.2 78 0.0 6 5   101.24     LegendNANA
11:00 11.4 7.2 75 0.0 8 8   101.25     LegendNANA
12:00 11.7 8.0 78 0.0 10 13   101.25     LegendNANA
13:00 11.5 8.2 80 0.0 9 8   101.24     LegendNANA
14:00 11.6 8.4 81 0.0 9 8   101.23     LegendNANA
15:00 11.2 8.6 84 0.0 8 7   101.16     LegendNANA
16:00 11.0 8.7 85 0.0 8 5   101.14     LegendNANA
17:00 10.7 8.6 87 0.0 12 3   101.07     LegendNANA
18:00 10.4 8.5 88 0.0 29 1   101.10     LegendNANA
19:00 9.7 8.4 91 0.0 25 2   101.10     LegendNANA
20:00 9.1 7.9 92 0.0   0   101.07     LegendNANA
21:00 8.9 7.9 94 0.0 25 2   101.01     LegendNANA
22:00 8.9 8.0 94 0.0 29 1   101.01     LegendNANA
23:00 8.5 7.7 95 0.0 23 2   100.99     LegendNANA

Notes on Data Quality.

Legend

  • E = Estimated
  • M = Missing
  • NA = Not Available*
  • [empty] = Indicates an unobserved value
Date modified: